Change the Weather History Date:

Tuesday, May 13, 2014

  Actual Average Record
Temperature  
Mean Temperature 57 °F -  
Max Temperature 63 °F 75 °F 79 °F (2005)
Min Temperature 50 °F 55 °F 38 °F (2013)
Degree Days  
Heating Degree Days 8    
Growing Degree Days 7 (Base 50)    
Moisture  
Dew Point 57 °F    
Average Humidity 91    
Maximum Humidity 100    
Minimum Humidity 77    
Precipitation  
Precipitation 0.57 in - - ()
Sea Level Pressure  
Sea Level Pressure 29.98 in    
Wind  
Wind Speed 10 mph (SSW)    
Max Wind Speed 16 mph    
Max Gust Speed -    
Visibility 6 miles    
Events Rain , Thunderstorm    
Averages and records for this station are not official NWS values.
T = Trace of Precipitation, MM = Missing Value Source: NWS Daily Summary

Daily Weather History Graph

Daily Weather History Graph

Search for Another Location

Airport or City:

Trip Planner

Search our weather history database for the weather conditions in past years. The results will help you decide how hot, cold, wet, or windy it might be!

Date:

Astronomy

May. 13, 2014 Rise Set
Actual Time 5:41 AM CDT 8:03 PM CDT
Civil Twilight 5:10 AM CDT 8:34 PM CDT
Nautical Twilight 4:32 AM CDT 9:12 PM CDT
Astronomical Twilight 3:50 AM CDT 9:54 PM CDT
Moon 7:04 PM CDT (5/13) 4:57 AM CDT (5/13)
Length of Visible Light 15h 23m
Length of Day
14h 22m
Waxing Gibbous, 99% of the Moon is Illuminated
May 13
Waxing Gibbous
May 14
Full
May 21
Last Quarter
May 28
New
Jun 5
First Quarter

Hourly Weather History & Observations

Time (CDT) Temp. Dew Point Humidity Pressure Visibility Wind Dir Wind Speed Gust Speed Precip Events Conditions
12:16 AM 64.4 °F 62.6 °F 94% 29.93 in 2.5 mi SSE 9.2 mph - 0.04 in Rain Rain
12:34 AM 64.4 °F 62.6 °F 94% 29.91 in 5.0 mi SE 5.8 mph - 0.07 in Rain Light Rain
1:09 AM 64.4 °F 62.6 °F 94% 29.92 in 2.5 mi SE 12.7 mph - 0.04 in Rain Light Rain
1:16 AM 64.4 °F 62.6 °F 94% 29.93 in 10.0 mi SSE 11.5 mph - 0.05 in Rain , Thunderstorm Light Thunderstorms and Rain
1:23 AM 64.4 °F 62.6 °F 94% 29.92 in 2.0 mi SE 9.2 mph - 0.11 in Rain , Thunderstorm Rain
1:31 AM 64.4 °F 62.6 °F 94% 29.91 in 3.0 mi SE 10.4 mph - 0.12 in Rain , Thunderstorm Light Thunderstorms and Rain
1:43 AM 64.4 °F 62.6 °F 94% 29.91 in 6.0 mi SE 11.5 mph - 0.13 in Rain Light Rain
1:56 AM 63.9 °F 61.9 °F 93% 29.91 in 8.0 mi South 13.8 mph - 0.15 in Rain Light Rain
2:01 AM 64.4 °F 62.6 °F 94% 29.91 in 1.8 mi SE 12.7 mph - 0.09 in Rain , Thunderstorm Heavy Thunderstorms and Rain
2:04 AM 62.6 °F 62.6 °F 100% 29.91 in 1.0 mi SSE 12.7 mph - 0.15 in Rain , Thunderstorm Thunderstorms and Rain
2:11 AM 62.6 °F 62.6 °F 100% 29.91 in 1.2 mi SSE 9.2 mph - 0.20 in Rain , Thunderstorm Thunderstorms and Rain
2:19 AM 62.6 °F 62.6 °F 100% 29.94 in 3.0 mi South 13.8 mph - 0.22 in Rain , Thunderstorm Light Thunderstorms and Rain
2:24 AM 62.6 °F 62.6 °F 100% 29.92 in 1.8 mi SSE 6.9 mph - 0.29 in Rain , Thunderstorm Heavy Thunderstorms and Rain
2:36 AM 62.6 °F 62.6 °F 100% 29.91 in 2.5 mi SE 10.4 mph - 0.32 in Rain Light Rain
2:43 AM 62.6 °F 62.6 °F 100% 29.92 in 4.0 mi South 6.9 mph - 0.34 in Rain Light Rain
2:56 AM 63.0 °F 61.0 °F 93% 29.89 in 5.0 mi SSE 8.1 mph - 0.36 in Rain Light Rain
3:56 AM 61.9 °F 61.0 °F 97% 29.89 in 10.0 mi South 9.2 mph - 0.04 in   Scattered Clouds
4:30 AM 62.6 °F 62.6 °F 100% 29.91 in 10.0 mi SSW 6.9 mph - N/A   Mostly Cloudy
4:47 AM 62.6 °F 60.8 °F 94% 29.91 in 10.0 mi South 5.8 mph - N/A   Scattered Clouds
4:56 AM 63.0 °F 61.9 °F 96% 29.88 in 10.0 mi South 6.9 mph - 0.00 in Rain Light Rain
5:01 AM 62.6 °F 62.6 °F 100% 29.91 in 10.0 mi South 6.9 mph - 0.00 in Rain Light Rain
5:56 AM 63.0 °F 61.9 °F 96% 29.87 in 8.0 mi SSE 4.6 mph - 0.01 in Rain Light Rain
6:43 AM 64.4 °F 62.6 °F 94% 29.94 in 2.5 mi South 10.4 mph - 0.00 in Rain Light Rain
6:48 AM 64.4 °F 62.6 °F 94% 29.94 in 1.8 mi South 9.2 mph - 0.00 in Rain Light Rain
6:56 AM 63.9 °F 61.9 °F 93% 29.91 in 2.5 mi South 9.2 mph - 0.01 in Rain Light Rain
6:59 AM 64.4 °F 62.6 °F 94% 29.94 in 1.2 mi South 10.4 mph - 0.01 in Rain Rain
7:06 AM 64.4 °F 62.6 °F 94% 29.95 in 2.5 mi South 10.4 mph - 0.04 in Rain Light Rain
10:43 AM 55.4 °F 53.6 °F 94% 30.03 in 1.5 mi West 12.7 mph - 0.00 in Rain Light Rain
11:02 AM 55.4 °F 53.6 °F 94% 30.04 in 3.0 mi West 12.7 mph - 0.00 in Rain Light Rain
11:56 AM 54.9 °F 50.9 °F 86% 30.05 in 5.0 mi WNW 13.8 mph - 0.00 in   Overcast
12:56 PM 54.9 °F 50.0 °F 84% 30.05 in 10.0 mi WNW 16.1 mph - 0.00 in   Overcast
1:56 PM 54.9 °F 50.0 °F 84% 30.06 in 7.0 mi WNW 15.0 mph - 0.00 in Rain Light Rain
2:24 PM 53.6 °F 48.2 °F 82% 30.08 in 9.0 mi WNW 13.8 mph - 0.00 in Rain Light Rain
2:56 PM 52.9 °F 48.9 °F 86% 30.08 in 7.0 mi WNW 11.5 mph - 0.00 in Rain Light Rain
3:56 PM 52.0 °F 47.8 °F 86% 30.11 in 9.0 mi WNW 11.5 mph - 0.00 in Rain Light Rain
4:56 PM 52.0 °F 46.9 °F 83% 30.10 in 10.0 mi WNW 11.5 mph - 0.00 in   Overcast
5:56 PM 52.0 °F 45.9 °F 80% 30.12 in 10.0 mi WNW 11.5 mph - 0.00 in   Overcast
6:56 PM 52.0 °F 45.0 °F 77% 30.13 in 10.0 mi NW 13.8 mph - 0.00 in   Overcast
8:56 PM 50.9 °F 43.9 °F 77% 30.17 in 10.0 mi NW 9.2 mph - N/A   Overcast
9:56 PM 50.0 °F 43.9 °F 79% 30.18 in 10.0 mi NW 8.1 mph - N/A   Clear
10:56 PM 50.0 °F 43.0 °F 77% 30.20 in 10.0 mi NW 4.6 mph - N/A   Scattered Clouds
11:56 PM 50.0 °F 43.0 °F 77% 30.21 in 10.0 mi NW 10.4 mph - N/A   Overcast